DELTA 1 DEB, 20349

Orbit data source: Space-Track

DELTA 1 DEB, 20349 is space debris in LEO originally from a launch on Thu, 29 Jul 1976 UTC launched from the Air Force Western Test Range (AFWTR). Debris objects in space refer to the collection of defunct objects orbiting the Earth. Examples of debris include non-operational satellites, rocket bodies, and fragments generated from explosions, collisions, or faulty payload assembly.

Loading next visibility...
Identifier
20349, 1976-077FR
Orbit
LEO
Country
Flag of USUS
Related business
Manufacturer
Unknown
Mission
Spacecraft
Bus & Motor
Unknown
Mass
Unknown
Launch date (UTC)
1976-07-29 (49 years ago)
Launch vehicle
Unknown
Launch site
Air Force Western Test Range (AFWTR)
Object type
Payload
Rocket body
Debris
Shape & HBR
Unknown shape, 0.1 m
Radar Cross Section
Small (<0.1 m²)

Expand to show TLE details & history
Last TLE update: 19 hours ago

TLE from 19 hours ago
0 DELTA 1 DEB
1 20349U 76077FR  25301.17589624  .00000098  00000-0  22977-2 0  9994
2 20349 102.5645  80.6272 0628805 165.9312  14.4834 11.33671909529486
Epoch: 2025-10-28T04:13Z
TLE epoch observation values (Epoch: 2025-10-28T04:13:17.435Z)
Latitude
-2.42279°
Longitude
159.99977°
Altitude
1,487.548 km
Speed
7.332 km/s
True Right ascension
17h 20m 21s
True Declination
-2° 24' 35"
Sunlit
Object was in daylight at epoch
Visualization orbit readout
Latitude
Unknown
Longitude
Unknown
Altitude
Unknown
Speed
Unknown
Apparent Right ascension
Unknown
Apparent Declination
Unknown
Sunlit
N/A
Visualization observer readout
Local Sidereal Time
19:10:29
Azimuth
Unknown
Elevation
Unknown
Doppler factor
Unknown
Orbital elements
Apogee altitude
2,516.136 km
Perigee altitude
1,463.758 km
Semi-major axis
8,368.084 km
Eccentricity
0.06288
Inclination
102.5645°
RAAN
80.6272°
Arg. of periapsis
165.9312°
True anomaly
16.43303°
Mean anomaly
14.4834°
Eccentric anomaly
15.44273°
Mean motion
2.83533 °/min
Orbital period
126.97 mins
BSTAR
0.0022977
Loading maneuver chart data...
Computing Atmospheric mass density...
Loading historical data...
Loading historical data...
Loading historical data...
Loading historical data...
Loading historical data...
Loading historical data...
Loading historical data...

Documentation

Showing up to 5 results
|